Weather History for Key West NAF, FL

Change the Weather History Date:

Sunday, November 25, 2012

  Actual Average Record
Temperature  
Mean Temperature 68 °F -  
Max Temperature 71 °F 78 °F 96 °F (1996)
Min Temperature 66 °F 70 °F 50 °F (1970)
Cooling Degree Days 4    
Growing Degree Days 18 (Base 50)    
Moisture  
Dew Point 54 °F    
Average Humidity 61    
Maximum Humidity 75    
Minimum Humidity 55    
Precipitation  
Precipitation 0.00 in - - ()
Sea Level Pressure  
Sea Level Pressure 30.10 in    
Wind  
Wind Speed 5 mph (North)    
Max Wind Speed 12 mph    
Max Gust Speed -    
Visibility 10 miles    
Events      
Averages and records for this station are not official NWS values.
T = Trace of Precipitation, MM = Missing Value Source: NWS Daily Summary

Daily Weather History Graph

Daily Weather History Graph

Search for Another Location

Airport:

Trip Planner

Search our weather history database for the weather conditions in past years. The results will help you decide how hot, cold, wet, or windy it might be!

Date:

Astronomy

Nov. 25, 2012 Rise Set
Actual Time 6:50 AM EST 5:37 PM EST
Civil Twilight 6:25 AM EST 6:02 PM EST
Nautical Twilight 5:57 AM EST 6:29 PM EST
Astronomical Twilight 5:30 AM EST 6:57 PM EST
Moon 3:44 PM EST 4:14 AM EST
Length of Visible Light 11h 36m
Length of Day
10h 47m
Waxing Gibbous, 93% of the Moon is Illuminated
Nov 25
Waxing Gibbous
Nov 28
Full
Dec 6
Last Quarter
Dec 13
New
Dec 20
First Quarter

Hourly Weather History & Observations

Time (EST) Temp. Dew Point Humidity Pressure Visibility Wind Dir Wind Speed Gust Speed Precip Events Conditions
12:53 AM - - N/A% 30.08 in 10.0 mi Calm Calm - N/A   Clear
1:53 AM - - N/A% 30.08 in 10.0 mi Calm Calm - N/A   Clear
2:53 AM - - N/A% 30.07 in 10.0 mi North 4.6 mph - N/A   Clear
3:38 AM - - N/A% 30.08 in 10.0 mi North 3.5 mph - N/A   Mostly Cloudy
3:53 AM - - N/A% 30.08 in 10.0 mi North 5.8 mph - N/A   Mostly Cloudy
4:53 AM - - N/A% 30.07 in 10.0 mi NNE 8.1 mph - N/A   Scattered Clouds
5:06 AM - - N/A% 30.07 in 10.0 mi NE 6.9 mph - N/A   Mostly Cloudy
5:13 AM - - N/A% 30.07 in 10.0 mi NNE 9.2 mph - N/A   Partly Cloudy
5:53 AM - - N/A% 30.08 in 10.0 mi NNE 9.2 mph - N/A   Scattered Clouds
5:56 AM 66.2 °F 57.2 °F 73% 30.08 in 10.0 mi NNE 8.1 mph - N/A   Partly Cloudy
6:53 AM 66.2 °F 57.9 °F 75% 30.10 in 10.0 mi NNE 6.9 mph - N/A   Partly Cloudy
7:53 AM 66.2 °F 54.0 °F 65% 30.12 in 10.0 mi NNE 11.5 mph - N/A   Clear
8:53 AM 68.0 °F 52.0 °F 56% 30.14 in 10.0 mi NNE 9.2 mph - N/A   Clear
9:53 AM 69.8 °F 53.1 °F 55% 30.15 in 10.0 mi North 10.4 mph - N/A   Clear
10:53 AM 68.0 °F 55.0 °F 63% 30.15 in 10.0 mi North 10.4 mph - N/A   Clear
11:53 AM 69.8 °F 55.0 °F 59% 30.14 in 10.0 mi North 10.4 mph - N/A   Clear
12:53 PM 69.8 °F 54.0 °F 57% 30.12 in 10.0 mi North 8.1 mph - N/A   Clear
1:53 PM 69.8 °F 55.0 °F 59% 30.09 in 10.0 mi North 9.2 mph - N/A   Clear
2:53 PM 71.6 °F 55.0 °F 56% 30.09 in 10.0 mi North 9.2 mph - N/A   Clear
3:53 PM 71.6 °F 55.9 °F 58% 30.09 in 10.0 mi North 6.9 mph - N/A   Clear
4:53 PM 69.8 °F 55.9 °F 61% 30.09 in 10.0 mi North 6.9 mph - N/A   Clear
5:53 PM 69.8 °F 55.0 °F 59% 30.09 in 10.0 mi North 4.6 mph - N/A   Clear
6:53 PM 68.0 °F 55.0 °F 63% 30.11 in 10.0 mi NNW 5.8 mph - N/A   Clear
7:53 PM 66.2 °F 52.0 °F 60% 30.12 in 10.0 mi NNW 3.5 mph - N/A   Clear
8:53 PM 66.2 °F 51.1 °F 58% 30.14 in 10.0 mi North 3.5 mph - N/A   Clear
9:53 PM 66.2 °F 51.1 °F 58% 30.14 in 10.0 mi North 4.6 mph - N/A   Clear
10:53 PM - - N/A% 30.14 in 10.0 mi Calm Calm - N/A   Clear
11:53 PM - - N/A% 30.14 in 10.0 mi Calm Calm - N/A   Clear